Stations météo

réclame
Mon MeteoGroup
Pertusato, France (7770): Température de l'air & dewpoint: 09.08.2018 01:00:00 - 15.08.2018 01:00:00 (CEST)Pertusato, France (7770): Vitesse du vent & gusts: 09.08.2018 01:00:00 - 15.08.2018 01:00:00 (CEST)Pertusato, France (7770): Direction du vent: 09.08.2018 01:00:00 - 15.08.2018 01:00:00 (CEST)Pertusato, France (7770): reduced air pressure: 09.08.2018 01:00:00 - 15.08.2018 01:00:00 (CEST)Pertusato, France (7770): visibility: 09.08.2018 01:00:00 - 15.08.2018 01:00:00 (CEST)Pertusato, France (7770): Quantités de précipitations: 09.08.2018 01:00:00 - 15.08.2018 01:00:00 (CEST)
Date & Time tt [°C] td [°C] ff [km/h] ff [knt] fx [km/h] fx [knt] dd ppp [hPa] vv [km] rr [mm]
15.08.2018 01:00:00 - - - - - - - - - -
15.08.2018 00:00:00 22,9 16,7 18 10 38 20 NW 1012,6 - 0,0
14.08.2018 23:00:00 24,0 16,8 31 17 47 26 WNW 1012,2 - 0,0
14.08.2018 22:00:00 24,2 17,9 28 15 53 29 WNW 1011,9 - 0,0
14.08.2018 21:00:00 24,4 17,6 37 20 54 29 W 1011,4 - 0,0
14.08.2018 20:00:00 24,6 17,8 36 19 53 29 W 1011,7 20 0,0
14.08.2018 19:00:00 25,5 18,7 40 22 55 30 W 1011,5 - 0,0
14.08.2018 18:00:00 25,4 18,8 37 20 51 28 W 1011,9 - 0,0
14.08.2018 17:00:00 26,6 19,5 39 21 59 32 W 1012,0 20 0,0
14.08.2018 16:00:00 26,4 19,0 42 23 56 30 W 1011,6 - 0,0
14.08.2018 15:00:00 26,3 18,2 39 21 61 33 W 1011,9 - 0,0
14.08.2018 14:00:00 26,5 19,4 44 24 67 36 W 1011,2 15 0,0
14.08.2018 13:00:00 26,8 20,9 36 20 54 29 W 1011,9 - 0,0
14.08.2018 12:00:00 26,7 20,5 36 19 48 26 W 1012,1 - 0,0
14.08.2018 11:00:00 26,6 20,9 34 18 45 25 W 1012,6 15 0,0
14.08.2018 10:00:00 25,7 21,1 28 15 48 26 W 1012,4 - 0,0
14.08.2018 09:00:00 24,2 20,3 19 11 42 23 WNW 1012,0 - 0,0
14.08.2018 08:00:00 22,2 18,0 15 8 43 23 W 1012,5 - 0,4
14.08.2018 07:00:00 23,9 21,6 21 12 34 18 WNW 1012,4 - 0,2
14.08.2018 06:00:00 24,6 21,3 18 10 33 18 W 1011,8 - 0,0
14.08.2018 05:00:00 24,5 21,0 27 15 36 19 W 1011,5 15 0,0
14.08.2018 04:00:00 24,6 20,7 24 13 39 21 W 1011,8 - 0,0
14.08.2018 03:00:00 24,8 20,3 26 14 42 23 W 1011,8 - 0,0
14.08.2018 02:00:00 25,5 18,9 32 17 44 24 W 1011,8 - 0,0
14.08.2018 01:00:00 26,0 18,9 31 17 41 22 W 1012,2 - 0,0
14.08.2018 00:00:00 25,5 18,7 22 12 40 21 W 1012,5 - 0,0
13.08.2018 23:00:00 25,7 18,4 22 12 33 18 W 1012,4 - 0,0
13.08.2018 22:00:00 25,4 19,5 15 8 26 14 WNW 1012,3 - 0,0
13.08.2018 21:00:00 25,8 19,7 19 10 25 13 W 1012,1 - 0,0
13.08.2018 20:00:00 26,4 20,3 18 10 31 17 W 1012,2 17 0,0
13.08.2018 19:00:00 27,2 19,3 16 9 27 15 W 1011,9 - 0,0
13.08.2018 18:00:00 28,1 20,6 16 8 21 11 W 1011,9 - 0,0
13.08.2018 17:00:00 29,3 20,5 8 4 16 9 WSW 1012,2 - 0,0
13.08.2018 16:00:00 28,8 22,3 4 2 27 15 NW 1012,5 - 0,0
13.08.2018 15:00:00 28,9 19,8 11 6 35 19 WNW 1012,8 - 0,0
13.08.2018 14:00:00 28,2 20,7 26 14 36 20 W 1013,3 25 0,0
13.08.2018 13:00:00 28,6 19,0 13 7 22 12 W 1014,0 - 0,0
13.08.2018 12:00:00 29,6 18,1 7 4 14 8 WSW 1014,5 - 0,0
13.08.2018 11:00:00 28,6 18,7 10 6 17 9 SE 1014,4 25 0,0
13.08.2018 10:00:00 28,1 20,4 11 6 17 9 ESE 1014,1 - 0,0
13.08.2018 09:00:00 26,3 21,3 4 2 12 6 SSE 1014,3 - 0,0
13.08.2018 08:00:00 25,3 21,2 6 3 12 7 E 1014,2 25 0,0
13.08.2018 07:00:00 22,4 19,4 8 5 11 6 ENE 1014,1 - 0,0
13.08.2018 06:00:00 22,3 19,1 0 0 6 4 N 1014,1 - 0,0
13.08.2018 05:00:00 22,9 20,1 6 4 12 7 WNW 1013,9 - 0,0
13.08.2018 04:00:00 24,2 20,5 9 5 16 9 W 1014,0 - 0,0
13.08.2018 03:00:00 24,2 20,7 7 4 13 7 WSW 1014,2 - 0,0
13.08.2018 02:00:00 24,3 20,4 7 4 19 10 W 1014,5 - 0,0
13.08.2018 01:00:00 25,1 20,1 10 5 26 14 W 1015,1 - 0,0
13.08.2018 00:00:00 25,1 20,4 7 4 22 12 N 1015,4 - 0,0
12.08.2018 23:00:00 25,2 20,9 6 3 20 11 E 1015,3 - 0,0
12.08.2018 22:00:00 25,1 20,8 8 5 29 16 W 1015,4 - 0,0
12.08.2018 21:00:00 25,2 21,1 26 14 41 22 W 1015,0 - 0,0
12.08.2018 20:00:00 25,6 21,1 27 14 41 22 W 1014,7 - 0,0
12.08.2018 19:00:00 26,3 21,1 30 16 41 22 W 1014,6 - 0,0
12.08.2018 18:00:00 26,9 20,5 29 16 41 22 W 1015,2 - 0,0
12.08.2018 17:00:00 27,8 20,6 30 16 42 23 W 1015,3 - 0,0
12.08.2018 16:00:00 27,8 19,6 30 16 39 21 W 1015,9 - 0,0
12.08.2018 15:00:00 28,3 18,7 27 15 36 19 W 1016,4 - 0,0
12.08.2018 14:00:00 28,2 18,0 27 14 36 19 W 1017,1 18 0,0
12.08.2018 13:00:00 27,3 19,4 19 10 34 19 WNW 1017,4 - 0,0
12.08.2018 12:00:00 26,9 19,8 11 6 24 13 W 1017,8 - 0,0
12.08.2018 11:00:00 27,1 20,2 17 9 27 15 W 1017,8 18 0,0
12.08.2018 10:00:00 27,1 20,0 17 9 26 14 W 1017,8 - 0,0
12.08.2018 09:00:00 26,5 19,4 16 9 24 13 WNW 1017,7 - 0,0
12.08.2018 08:00:00 25,2 19,3 16 9 25 13 WNW 1017,6 - 0,0
12.08.2018 07:00:00 24,0 19,3 19 11 32 17 WNW 1017,4 - 0,0
12.08.2018 06:00:00 24,1 19,6 22 12 32 17 W 1016,9 - 0,0
12.08.2018 05:00:00 24,1 19,6 20 11 29 16 W 1016,7 16 0,0
12.08.2018 04:00:00 23,9 19,2 21 11 31 17 WNW 1016,9 - 0,0
12.08.2018 03:00:00 24,3 19,6 23 13 37 20 W 1016,9 - 0,0
12.08.2018 02:00:00 24,7 19,8 29 15 37 20 W 1017,4 - 0,0
12.08.2018 01:00:00 24,8 19,4 27 14 37 20 W 1017,8 - 0,0
12.08.2018 00:00:00 25,0 19,8 26 14 39 21 W 1018,1 - 0,0
11.08.2018 23:00:00 25,1 19,2 28 15 40 22 W 1018,2 - 0,0
11.08.2018 22:00:00 25,4 19,1 28 15 45 25 WNW 1017,8 - 0,0
11.08.2018 21:00:00 25,8 18,5 29 16 48 26 WNW 1017,5 - 0,0
11.08.2018 20:00:00 26,3 18,9 35 19 48 26 W 1017,1 - 0,0
11.08.2018 19:00:00 26,9 18,7 35 19 52 28 W 1017,1 - 0,0
11.08.2018 18:00:00 27,0 19,9 40 22 55 30 W 1017,3 - 0,0
11.08.2018 17:00:00 27,5 19,8 39 21 54 29 W 1017,7 - 0,0
11.08.2018 16:00:00 27,7 20,5 42 23 63 34 W 1018,2 - 0,0
11.08.2018 15:00:00 27,7 20,3 33 18 62 33 W 1018,5 - 0,0
11.08.2018 14:00:00 27,6 19,4 27 14 57 31 W 1018,5 - 0,0
11.08.2018 13:00:00 27,3 20,6 34 18 55 30 W 1018,9 - 0,0
11.08.2018 12:00:00 26,8 21,1 29 16 54 29 W 1019,2 - 0,0
11.08.2018 11:00:00 26,6 21,1 31 17 55 30 W 1019,2 20 0,0
11.08.2018 10:00:00 26,4 21,2 35 19 53 29 W 1019,1 - 0,0
11.08.2018 09:00:00 26,3 20,8 35 19 49 26 W 1019,3 - 0,0
11.08.2018 08:00:00 25,8 19,9 31 17 46 25 W 1019,1 20 0,0
11.08.2018 07:00:00 25,4 20,2 31 17 50 27 W 1019,0 - 0,0
11.08.2018 06:00:00 25,4 20,0 36 19 50 27 W 1018,6 - 0,0
11.08.2018 05:00:00 25,6 20,2 39 21 56 30 W 1018,6 18 0,0
11.08.2018 04:00:00 25,8 20,4 39 21 54 29 W 1018,8 - 0,0
11.08.2018 03:00:00 25,5 21,0 34 19 48 26 W 1019,1 - 0,0
11.08.2018 02:00:00 25,6 21,7 32 17 44 24 W 1019,7 - 0,0
11.08.2018 01:00:00 25,8 22,1 18 10 43 23 WNW 1020,1 - 0,0
11.08.2018 00:00:00 25,8 22,1 33 18 46 25 W 1019,9 - 0,0
10.08.2018 23:00:00 25,9 22,2 31 17 41 22 W 1019,8 - 0,0
10.08.2018 22:00:00 26,1 22,2 25 14 39 21 W 1019,7 - 0,0
10.08.2018 21:00:00 26,6 21,8 23 13 43 23 WNW 1019,4 - 0,0
10.08.2018 20:00:00 27,1 22,7 21 12 43 23 WNW 1019,0 - 0,0
10.08.2018 19:00:00 27,7 22,6 28 15 45 24 W 1019,2 - 0,0
10.08.2018 18:00:00 28,7 21,5 29 16 51 27 W 1019,3 - 0,0
10.08.2018 17:00:00 28,5 21,0 39 21 52 28 W 1019,0 16 0,0
10.08.2018 16:00:00 28,6 21,4 35 19 52 28 W 1019,3 - 0,0
10.08.2018 15:00:00 28,9 21,7 19 10 42 23 W 1019,2 - 0,0
10.08.2018 14:00:00 30,0 21,7 8 5 26 14 WNW 1019,6 15 0,0
10.08.2018 13:00:00 29,6 22,3 8 5 33 18 WNW 1020,0 - 0,0
10.08.2018 12:00:00 29,3 21,3 16 9 37 20 W 1020,1 - 0,0
10.08.2018 11:00:00 29,2 21,4 24 13 34 18 W 1020,2 - 0,0
10.08.2018 10:00:00 27,9 21,7 22 12 34 18 WNW 1020,2 - 0,0
10.08.2018 09:00:00 27,8 20,9 8 5 16 8 WNW 1019,8 - 0,0
10.08.2018 08:00:00 25,8 21,7 6 3 10 6 NNW 1019,7 - 0,0
10.08.2018 07:00:00 24,4 21,9 9 5 13 7 NNE 1019,1 - 0,0
10.08.2018 06:00:00 24,5 21,4 8 4 15 8 ENE 1018,5 - 0,0
10.08.2018 05:00:00 25,2 21,7 10 5 19 10 E 1018,1 15 0,0
10.08.2018 04:00:00 25,5 21,6 14 8 27 15 ENE 1018,1 - 0,0
10.08.2018 03:00:00 25,5 22,8 21 11 31 17 ENE 1016,9 - 0,0
10.08.2018 02:00:00 24,9 21,4 15 8 22 12 NE 1018,1 - 0,0
10.08.2018 01:00:00 24,6 21,1 12 7 18 10 NNE 1018,5 - 0,0
10.08.2018 00:00:00 24,4 21,1 10 5 20 11 NNE 1018,5 - 0,0
09.08.2018 23:00:00 25,7 20,9 9 5 16 9 NNW 1017,9 - 0,0
09.08.2018 22:00:00 26,7 21,9 8 4 24 13 WNW 1017,4 - 0,0
09.08.2018 21:00:00 27,3 22,5 13 7 24 13 W 1017,1 - 0,0
09.08.2018 20:00:00 27,7 19,8 7 4 16 9 NW 1016,8 13 0,0
09.08.2018 19:00:00 29,1 19,7 9 5 26 14 E 1016,2 - 0,0
09.08.2018 18:00:00 29,5 20,9 17 9 29 16 E 1015,5 - 0,0
09.08.2018 17:00:00 30,2 20,4 22 12 32 18 E 1015,6 - 0,0
09.08.2018 16:00:00 31,5 18,5 21 11 33 18 E 1015,6 - 0,0
09.08.2018 15:00:00 31,4 19,7 20 11 32 17 E 1015,9 - 0,0
09.08.2018 14:00:00 31,7 19,3 19 11 29 16 E 1016,0 13 0,0
09.08.2018 13:00:00 31,2 18,5 17 9 29 16 E 1016,3 - 0,0
09.08.2018 12:00:00 31,1 20,1 16 8 26 14 E 1016,4 - 0,0
09.08.2018 11:00:00 30,3 19,7 13 7 31 17 E 1016,6 12 0,0
09.08.2018 10:00:00 29,0 22,0 16 9 29 16 ENE 1016,0 - 0,0
09.08.2018 09:00:00 27,4 23,2 12 6 18 10 ENE 1016,1 - 0,0
09.08.2018 08:00:00 25,7 23,2 13 7 18 10 ENE 1015,9 - 0,0
09.08.2018 07:00:00 23,4 22,2 7 4 10 5 ENE 1016,0 - 0,0
09.08.2018 06:00:00 23,0 21,4 8 4 10 5 ENE 1015,4 - 0,0
09.08.2018 05:00:00 23,1 21,0 0 0 6 3 N 1015,1 14 0,0
09.08.2018 04:00:00 23,5 21,4 4 2 6 3 ENE 1015,0 - 0,0
09.08.2018 03:00:00 24,2 22,6 4 2 7 4 NW 1015,1 - 0,0
09.08.2018 02:00:00 24,2 22,3 5 3 8 4 NW 1015,4 - 0,0
09.08.2018 01:00:00 24,8 22,5 0 0 4 2 N 1015,8 - 0,0

tt = Température de l'air
td = dewpoint
ff = Vitesse du vent
fx = gusts
dd = Direction du vent
ppp = reduced air pressure
vv = visibility
rr = Quantités de précipitations

stations d'obs. à proximité